Home   Weather   Nienburg (Weser)   Past weeks

Flag for Germany Past Weather in Nienburg (Weser), Lower Saxony, Germany — Yesterday and Last 2 Weeks

Now
64 °F

Passing clouds.


Feels Like: 64 °F
Forecast: 55 / 71 °F
Wind: 8 mph from Southeast

Location: Wunstorf Airport

Current Time: Aug 31, 2016 at 10:16:04 AM

Latest Report: Aug 31, 2016 at 9:20 AM


Visibility: N/A

Pressure: 30.18 "Hg

Humidity: 60%

Dew Point: 50 °F

Location of Nienburg (Weser)Location

Past Weather in Nienburg (Weser) — Graph

°F

Nienburg (Weser) Temperature Yesterday

Maximum temperature yesterday: 73 °F (at 3:20 PM)
Minimum temperature yesterday: 50 °F (at 3:20 AM)
Average temperature yesterday: 62 °F

High & Low Weather Summary for the Past Weeks

 TemperatureHumidityPressure
High95 °F (Aug 28, 3:20 PM)94% (Aug 17, 5:20 AM)30.33 "Hg (Aug 17, 5:20 AM)
Low46 °F (Aug 18, 5:20 AM)24% (Aug 25, 5:20 PM)29.80 "Hg (Aug 18, 3:20 PM)
Average68 °F66%30.05 "Hg
* Reported Aug 16 8:20 AM — Aug 31 8:20 AM, Nienburg (Weser), Weather by CustomWeather, © 2016

Note: Actual official high and low records may vary slightly from our data, if they occured in-between our weather recording intervals... More about our weather records

Advertising

Nienburg (Weser) Weather History for the Previous 24 Hours

Scroll right to see more
 ConditionsComfort  
Time TempWeatherWind HumidityBarometerVisibility
8:20 AM
Wed, Aug 31
57 °FPassing clouds.2 mph77%30.18 "HgN/A
7:20 AM52 °FPassing clouds.2 mph88%30.21 "HgN/A
6:20 AM50 °FFog.1 mph94%30.21 "HgN/A
5:20 AM50 °FFog.2 mph94%30.21 "HgN/A
4:20 AM52 °FCool.2 mph88%30.21 "Hg6 mi
3:20 AM52 °FCool.2 mph88%30.21 "Hg6 mi
2:20 AM55 °FCool.3 mph82%30.24 "Hg6 mi
1:20 AM55 °FCool.2 mph82%30.24 "Hg5 mi
12:20 AM57 °FCool.1 mph77%30.24 "Hg6 mi
11:20 PM
Tue, Aug 30
59 °FCool.2 mph72%30.24 "HgN/A
10:20 PM63 °FMild.2 mph64%30.24 "HgN/A
9:20 PM64 °FMild.1 mph60%30.27 "Hg4 mi
8:20 PM68 °FMild.3 mph53%30.24 "HgN/A
7:20 PM72 °FPassing clouds.3 mph41%30.24 "HgN/A
6:20 PM73 °FPassing clouds.3 mph38%30.24 "HgN/A
5:20 PM73 °FPassing clouds.6 mph38%30.27 "HgN/A
4:20 PM73 °FPassing clouds.6 mph38%30.27 "HgN/A
3:20 PM73 °FPassing clouds.6 mph38%30.30 "HgN/A
2:20 PM72 °FPassing clouds.8 mph44%30.30 "HgN/A
1:20 PM70 °FPassing clouds.6 mph46%30.30 "HgN/A
12:20 PM68 °FPassing clouds.6 mph49%30.33 "HgN/A
11:20 AM64 °FScattered clouds.3 mph64%30.33 "HgN/A
10:20 AM63 °FScattered clouds.5 mph68%30.33 "HgN/A
Weather by CustomWeather, © 2016

See weather overviewHow to use our weather pages